• In Czech Republic
  • List of Countries
  • For 7 days
  • Water Temperature
  • Satellite Maps
  • Weather Map
  • Weather Widgets
  • user-avatar
    Login

    Hourly Weather Bogorodchany

    Today, 17 January, Wednesday

    Time Temperature Precipitation Wind Pressure Humidity
    00:00 -8°C° 0 mm 2 mps 716 mmHg 100%
    01:00 -8°C° 0 mm 1 mps 715 mmHg 100%
    02:00 -8°C° 0 mm 1 mps 715 mmHg 100%
    03:00 -8°C° 0 mm 1 mps 715 mmHg 100%
    04:00 -7°C° 0 mm 1 mps 714 mmHg 100%
    05:00 -6°C° 0 mm 0 mps 714 mmHg 99%
    06:00 -4°C° 0 mm 1 mps 714 mmHg 97%
    07:00 -4°C° 0 mm 1 mps 714 mmHg 95%
    08:00 -3°C° 0 mm 1 mps 715 mmHg 94%
    09:00 -3°C° 0 mm 1 mps 715 mmHg 94%
    10:00 -2°C° 0 mm 1 mps 715 mmHg 92%
    11:00 0°C° 0 mm 1 mps 715 mmHg 92%
    12:00 0°C° 0 mm 0 mps 715 mmHg 91%
    13:00 +1°C° 0 mm 0 mps 714 mmHg 95%
    14:00 +1°C° 0 mm 0 mps 714 mmHg 96%
    15:00 +1°C° 0 mm 0 mps 714 mmHg 99%
    16:00 +2°C° 0 mm 1 mps 714 mmHg 98%
    17:00 +2°C° 0 mm 1 mps 714 mmHg 92%
    18:00 +1°C° 0 mm 1 mps 714 mmHg 94%
    19:00 -1°C° 0 mm 0 mps 714 mmHg 100%
    20:00 -2°C° 0 mm 0 mps 714 mmHg 100%
    21:00 -3°C° 0 mm 2 mps 715 mmHg 100%
    22:00 -4°C° 0.6 mm 3 mps 715 mmHg 100%
    23:00 -4°C° 0.8 mm 3 mps 716 mmHg 100%

    Tomorrow, 18 January, Thursday

    Time Temperature Precipitation Wind Pressure Humidity
    00:00 -3°C° 0.3 mm 4 mps 716 mmHg 100%
    01:00 -2°C° 0.1 mm 3 mps 716 mmHg 100%
    02:00 -4°C° 0 mm 4 mps 717 mmHg 99%
    03:00 -5°C° 0 mm 5 mps 717 mmHg 98%
    04:00 -6°C° 0 mm 5 mps 717 mmHg 96%
    05:00 -7°C° 0 mm 5 mps 717 mmHg 96%
    06:00 -7°C° 0 mm 5 mps 718 mmHg 99%
    07:00 -7°C° 0 mm 4 mps 719 mmHg 98%
    08:00 -6°C° 0 mm 5 mps 719 mmHg 95%
    09:00 -7°C° 0 mm 7 mps 719 mmHg 93%
    10:00 -6°C° 0 mm 7 mps 720 mmHg 95%
    11:00 -6°C° 0 mm 7 mps 721 mmHg 95%
    12:00 -4°C° 0 mm 7 mps 721 mmHg 91%
    13:00 -4°C° 0 mm 7 mps 721 mmHg 89%
    14:00 -4°C° 0 mm 6 mps 721 mmHg 89%
    15:00 -4°C° 0 mm 6 mps 721 mmHg 88%
    16:00 -4°C° 0 mm 5 mps 721 mmHg 87%
    17:00 -5°C° 0 mm 4 mps 721 mmHg 88%
    18:00 -6°C° 0 mm 3 mps 721 mmHg 85%
    19:00 -8°C° 0 mm 4 mps 721 mmHg 85%
    20:00 -6°C° 0 mm 2 mps 721 mmHg 78%
    21:00 -6°C° 0 mm 2 mps 720 mmHg 76%
    22:00 -4°C° 0 mm 1 mps 719 mmHg 78%
    23:00 -3°C° 0 mm 1 mps 718 mmHg 81%

    Day after tomorrow, 19 January, Friday

    Time Temperature Precipitation Wind Pressure Humidity
    00:00 -3°C° 0 mm 1 mps 717 mmHg 81%
    01:00 -3°C° 0 mm 2 mps 716 mmHg 83%
    02:00 -4°C° 0 mm 8 mps 715 mmHg 79%
    03:00 -1°C° 0 mm 8 mps 715 mmHg 80%
    04:00 -2°C° 0 mm 6 mps 715 mmHg 82%
    05:00 -2°C° 0 mm 4 mps 715 mmHg 83%
    06:00 -2°C° 0 mm 5 mps 715 mmHg 84%
    07:00 -2°C° 0 mm 6 mps 715 mmHg 85%
    08:00 -2°C° 0 mm 6 mps 716 mmHg 85%
    09:00 -2°C° 0 mm 7 mps 716 mmHg 85%
    10:00 -1°C° 0 mm 7 mps 717 mmHg 85%
    11:00 +1°C° 0 mm 6 mps 717 mmHg 84%
    12:00 +1°C° 0 mm 6 mps 718 mmHg 83%
    13:00 0°C° 0 mm 7 mps 718 mmHg 82%
    14:00 +1°C° 0 mm 6 mps 718 mmHg 82%
    15:00 +1°C° 0 mm 5 mps 719 mmHg 83%
    16:00 0°C° 0 mm 4 mps 720 mmHg 84%
    17:00 -1°C° 0 mm 4 mps 720 mmHg 86%
    18:00 -1°C° 0 mm 3 mps 721 mmHg 89%
    19:00 -3°C° 0 mm 4 mps 721 mmHg 92%
    20:00 -4°C° 0 mm 3 mps 722 mmHg 94%
    21:00 -5°C° 0 mm 3 mps 722 mmHg 95%
    22:00 -2°C° 0 mm 1 mps 723 mmHg 95%
    23:00 -5°C° 0 mm 2 mps 724 mmHg 97%

    20 January, Saturday

    Time Temperature Precipitation Wind Pressure Humidity
    00:00 -6°C° 0 mm 2 mps 724 mmHg 97%
    01:00 -6°C° 0 mm 2 mps 724 mmHg 95%
    02:00 -4°C° 0 mm 1 mps 724 mmHg 95%
    03:00 -6°C° 0 mm 1 mps 725 mmHg 95%
    04:00 -7°C° 0 mm 2 mps 725 mmHg 100%
    05:00 -6°C° 0 mm 1 mps 725 mmHg 100%
    06:00 -6°C° 0 mm 0 mps 725 mmHg 100%
    07:00 -6°C° 0 mm 0 mps 724 mmHg 100%
    08:00 -7°C° 0 mm 1 mps 724 mmHg 100%
    09:00 -7°C° 0 mm 1 mps 724 mmHg 100%
    10:00 -7°C° 0 mm 1 mps 724 mmHg 100%
    11:00 -6°C° 0 mm 1 mps 724 mmHg 100%
    12:00 -5°C° 0.5 mm 2 mps 724 mmHg 100%
    13:00 -5°C° 0.5 mm 4 mps 723 mmHg 100%
    14:00 -4°C° 0 mm 4 mps 723 mmHg 100%

    21 January, Sunday

    Time Temperature Precipitation Wind Pressure Humidity

    22 January, Monday

    Time Temperature Precipitation Wind Pressure Humidity
    Show more